Terug naar catalogus

WGS 9

USA 275

ActiefMilitairGEO
NORAD 42075·PAYLOAD·🇺🇸 United States

Gelanceerd Mar 19, 2017 vanaf Cape Canaveral Space Force Station

Loading…

TLE

VersSource: Space-Track

Epoch: Sep 14, 2026, 06:54 UTC

1 42075U 17016A   26257.28764436  .00000000  00000-0  00000-0 0  9995
2 42075   0.0211 176.1413 0000114 257.3701  11.3280  1.00268451 34782

Volg WGS 9 in realtime met AllMySat

Download on the App Store